{"data":{"norad_id":52340,"epoch":"2026-09-20T02:18:21.502080Z","epoch_age_seconds":94558,"freshness":"FRESH","line1":"1 52340U 22045K   26263.09608220  .00000676  00000+0  31154-4 0  9999","line2":"2 52340  53.1612  31.2789 0000991  83.6967 276.4149 15.34389265245327","mean_motion":15.34389265,"eccentricity":9.91e-5,"inclination_deg":53.1612,"raan_deg":31.2789,"arg_perigee_deg":83.6967,"mean_anomaly_deg":276.4149,"bstar":3.1154e-5,"rev_number":24532,"period_min":93.848414665492,"perigee_km":462.05721664565,"apogee_km":463.4130775052,"semimajor_km":6840.8721470754,"source":"CELESTRAK","updated_at":"2026-09-20T09:00:40.022585Z"}}